OPS 4682 DEB, 38374

Orbit data source: Space-Track

OPS 4682 DEB, 38374 is space debris in LEO originally from a launch on Sat, 03 Apr 1965 UTC launched from the Air Force Western Test Range (AFWTR). Debris objects in space refer to the collection of defunct objects orbiting the Earth. Examples of debris include non-operational satellites, rocket bodies, and fragments generated from explosions, collisions, or faulty payload assembly.

Loading next visibility...
Identifier
38374, 1965-027CB
Orbit
LEO
Country
Flag of USUS
Related business
Manufacturer
Unknown
Mission
Spacecraft
Bus & Motor
Unknown
Mass
Unknown
Launch date (UTC)
1965-04-03 (61 years ago)
Launch vehicle
Unknown
Launch site
Air Force Western Test Range (AFWTR)
Object type
Payload
Rocket body
Debris
Shape & HBR
Unknown shape, 0.1 m
Radar Cross Section
Medium (>0.1 m² and <1 m²)

Expand to show TLE details & history
Last TLE update: 10 hours ago

TLE from 10 hours ago
0 OPS 4682 DEB
1 38374U 65027CB  26255.31506067  .00000609  00000-0  19611-2 0  9998
2 38374  90.2538  16.0354 0021937 349.7545  10.3128 13.01367522623963
Epoch: 2026-09-12T07:33Z
TLE epoch observation values (Epoch: 2026-09-12T07:33:41.241Z)
Latitude
-0.00003°
Longitude
-88.71227°
Altitude
1,243.139 km
Speed
7.241 km/s
True Right ascension
01h 04m 08s
True Declination
0° 00' 00"
Sunlit
Object was in full shadow at epoch
Visualization orbit readout
Latitude
Unknown
Longitude
Unknown
Altitude
Unknown
Speed
Unknown
Apparent Right ascension
Unknown
Apparent Declination
Unknown
Sunlit
N/A
Visualization observer readout
Local Sidereal Time
09:52:18
Azimuth
Unknown
Elevation
Unknown
Doppler factor
Unknown
Orbital elements
Apogee altitude
1,270.601 km
Perigee altitude
1,237.116 km
Semi-major axis
7,631.995 km
Eccentricity
0.00219
Inclination
90.2538°
RAAN
16.0354°
Arg. of periapsis
349.7545°
True anomaly
10.35792°
Mean anomaly
10.3128°
Eccentric anomaly
10.33535°
Mean motion
3.25526 °/min
Orbital period
110.59 mins
BSTAR
0.0019611
Loading maneuver chart data...
Computing Atmospheric mass density...
Loading historical data...
Loading historical data...
Loading historical data...
Loading historical data...
Loading historical data...
Loading historical data...
Loading historical data...

Documentation

Showing up to 5 results
|